Regional Weather Roundup
Issued by NWS

Home | Current Version | Previous Version | Text Only | Print | Product List | Glossary On
Versions: 1 2 3 4 5 6 7 8 9 10 11 12 13 14 15 16 17 18 19 20 21 22 23 24 25 26 27 28 29 30 31 32 33 34 35 36 37 38 39 40 41 42 43 44 45 46 47 48 49 50
000
ASUS43 KFSD 261410
RWRSD

WEATHER ROUNDUP FOR SOUTH DAKOTA
NATIONAL WEATHER SERVICE SIOUX FALLS SD
900 AM CDT FRI AUG 26 2016

NOTE: "FAIR" INDICATES FEW OR NO CLOUDS BELOW 12,000 FEET WITH NO
SIGNIFICANT WEATHER AND/OR OBSTRUCTIONS TO VISIBILITY.


SDZ001>005-009-010-012>017-261500-
NORTHWEST AND NORTH CENTRAL SOUTH DAKOTA

CITY           SKY/WX    TMP DP  RH WIND       PRES   REMARKS
BUFFALO          N/A     56  47  71 S6        30.05F
FAITH            N/A     53  53 100 S18       30.13F
MOBRIDGE       MOSUNNY   59  49  69 S7        30.13S
$$

SDZ012>016-024>037-041>051-057-063-072>074-261500-
SOUTHWEST AND SOUTH CENTRAL SOUTH DAKOTA

CITY           SKY/WX    TMP DP  RH WIND       PRES   REMARKS
RAPID CTY ARPT CLOUDY    54  51  90 SE8       30.17R
PIERRE         CLOUDY    54  52  93 SE6       30.13F
CUSTER         CLOUDY    47  44  90 NE9       30.20R
ELLSWORTH AFB  CLOUDY    53  53 100 S6        30.15S
PHILIP         HVY RAIN  55  55 100 W8        30.20R FOG
PINE RIDGE     RAIN      53  53 100 SE17      30.14F
WINNER         CLOUDY    61  53  75 S5        30.18R
$$

SDZ004>011-016>023-039-040-261500-
NORTHEAST SOUTH DAKOTA

CITY           SKY/WX    TMP DP  RH WIND       PRES   REMARKS
ABERDEEN       SUNNY     54  49  83 S5        30.16F
WATERTOWN      SUNNY     58  53  84 CALM      30.18R
BROOKINGS      MOSUNNY   55  53  93 N3        30.19S
SISSETON         N/A     62  56  80 VRB3      30.15R
$$

SDZ017-020-022-023-036>040-048>070-261500-
SOUTHEAST SOUTH DAKOTA

CITY           SKY/WX    TMP DP  RH WIND       PRES   REMARKS
SIOUX FALLS    CLOUDY    59  55  87 CALM      30.19S
HURON          SUNNY     57  50  77 CALM      30.18R
CHAMBERLAIN    CLOUDY    58  53  83 E3        30.17S
MITCHELL       SUNNY     57  54  89 MISG      30.19S
YANKTON        CLOUDY    57  52  82 E3        30.17S
$$

ABBREVIATIONS USED IN REMARKS
   TC - TEMPERATURE IN CELSIUS
  WCI - WIND CHILL INDEX
   HX - HEAT INDEX
  VSB - VISIBILITY




USA.gov is the U.S. government's official web portal to all federal, state and local government web resources and services.